Back to catalog

FENGYUN 1C DEB

AliveSSO
NORAD 35128·DEBRIS·🇨🇳 China

Launched May 10, 1999 from Taiyuan Satellite Launch Center

Loading…

Next Passes (next 24 hours)

TLE

AgingSource: Space-Track

Epoch: Sep 9, 2026, 10:58 UTC

1 35128U 99025DLG 26252.45737321  .00006102  00000-0  17456-2 0  9997
2 35128  98.3322 127.3582 0081763 250.6049 108.6291 14.43453337668708

Track FENGYUN 1C DEB in real time with AllMySat

Download on the App Store